Tracking 19847 objects as of 17-Sep-2019
HD Live streaming from Space Station
objects crossing your sky now

COSMOS 1109 DEB

Track COSMOS 1109 DEB now!


NORAD ID: 32979
Int'l Code: 1979-058U
Perigee: 3,133.2 km
Apogee: 37,662.4 km
Inclination: 70.3 °
Period: 726.4 minutes
Semi major axis: 26768 km
RCS: 0.0317 m2 (small)
Launch date: June 27, 1979
Source: Commonwealth of Independent States (former USSR) (CIS)
Launch site: PLESETSK MISSILE AND SPACE COMPLEX (PKMTR)

Note: This is SATELLITE DEBRIS
aabbcc
Your satellite tracking list
Your tracking list is empty




NASA's NSSDC Master Catalog

Two Line Element Set (TLE):
1 32979U 79058U   11235.45818226 -.00000001 +00000-0 +00000-0 0  9999
2 32979 070.2898 292.8864 6449518 319.8498 031.8522 01.98225246036294
Source of the keplerian elements: AFSPC